Location: 22
(39.7117°N, 89.5929°W)
Time: 08:47:48
(UTC-05:00)

S-56A Canister/Altair - Pass Details

Date: 16 February 2023
Orbit: 638 x 2493 km, 38.9° (Epoch: 25 March)

Event Time Altitude Azimuth Distance (km) Brightness Sun altitude
Rises 10:43:08 0° 279° (W) 3,039 10.3 34.0°
Reaches altitude 10° 10:45:34 10° 274° (W) 2,050 9.6 34.2°
Maximum altitude 10:49:56 52° 198° (SSW) 793 8.7 34.6°
Drops below altitude 10° 10:54:33 10° 122° (ESE) 2,156 10.7 35.0°
Sets 10:57:10 0° 117° (ESE) 3,215 11.3 35.2°
